This is the latest recevied weather packets stored in our database for station/object K1RFS. If no packets are shown the sender has not sent any weather packets the latest 10 day(s).
| Time | Temp. | Humidity | Pressure | Rain* | Wind** | Luminosity | Snow |
|---|---|---|---|---|---|---|---|
| 1778092592 | 13.33° C | 28% | 1005.3 hPa | 0 mm | - | 671 W/m² | - |
| 1778092287 | 12.78° C | 27% | 1005 hPa | 0 mm | - | 669 W/m² | - |
| 1778091986 | 12.78° C | 26% | 1005.2 hPa | 0 mm | - | 666 W/m² | - |
| 1778091682 | 12.78° C | 25% | 1005 hPa | 0 mm | - | 662 W/m² | - |
| 1778091380 | 11.67° C | 29% | 1005 hPa | 0 mm | - | 657 W/m² | - |
| 1778091077 | 12.22° C | 27% | 1005.2 hPa | 0 mm | - | 652 W/m² | - |
| 1778090774 | 12.22° C | 27% | 1005 hPa | 0 mm | - | 648 W/m² | - |
| 1778090470 | 12.22° C | 28% | 1005 hPa | 0 mm | - | 641 W/m² | - |
| 1778090166 | 11.67° C | 27% | 1005 hPa | 0 mm | - | 634 W/m² | - |
| 1778089862 | 11.67° C | 29% | 1005.3 hPa | 0 mm | - | 629 W/m² | - |
| 1778089562 | 11.67° C | 27% | 1005.3 hPa | 0 mm | - | 622 W/m² | - |
| 1778089257 | 11.67° C | 27% | 1005 hPa | 0 mm | - | 614 W/m² | - |
| 1778088955 | 11.67° C | 26% | 1005 hPa | 0 mm | - | 59 W/m² | - |
| 1778088652 | 11.11° C | 29% | 1004.8 hPa | 0 mm | - | 37 W/m² | - |
| 1778088349 | 11.67° C | 29% | 1005 hPa | 0 mm | - | 37 W/m² | - |
| 1778088045 | 11.67° C | 29% | 1004.8 hPa | 0 mm | - | 36 W/m² | - |
| 1778087743 | 11.11° C | 28% | 1004.6 hPa | 0 mm | - | 36 W/m² | - |
| 1778087441 | 11.11° C | 29% | 1004.7 hPa | 0 mm | - | 36 W/m² | - |
| 1778087138 | 11.67° C | 29% | 1004.7 hPa | 0 mm | - | 35 W/m² | - |
| 1778086830 | 11.11° C | 29% | 1004.4 hPa | 0 mm | - | 35 W/m² | - |
| 1778086528 | 11.11° C | 28% | 1004.5 hPa | 0 mm | - | 35 W/m² | - |
| 1778086223 | 10.56° C | 25% | 1004.6 hPa | 0 mm | - | 34 W/m² | - |
| 1778085920 | 10.56° C | 26% | 1004.4 hPa | 0 mm | - | 34 W/m² | - |
| 1778085618 | 10.56° C | 26% | 1004.4 hPa | 0 mm | - | 34 W/m² | - |
| 1778085314 | 10.56° C | 27% | 1004 hPa | 0 mm | - | 33 W/m² | - |
* Rain latest hour (hover to see other rain measurements)
** Current wind speed in m/s (hover to see current wind gust speed)